STARLINK-32188, 60365

Orbit data source: Space-Track

STARLINK-32188, 60365 is a payload satellite owned by SpaceX/Seattle (US) in LEO that was launched on Sun, 04 Aug 2024 UTC via an FALCON 9 launch vehicle from the Air Force Western Test Range (AFWTR). Payload-class satellites include a variety of spacecraft equipped with specific instruments for various scientific and technological missions. These include communications satellites like Starlink; space stations such as the ISS; scientific satellites like the Hubble; Earth observation satellites from companies like Planet Labs, Umbra, and HawkEye 360; GPS; miniature CubeSats for education and research; and military/defense satellites.

Loading next visibility...
Identifier
60365, 2024-138L
Orbit
LEO
Country
Flag of USUS
Related business
Manufacturer
SpaceX/Seattle
Mission
Operational Commercial Communications
Bus & Motor
STARLINK V2M, Unknown motor
Mass
730 kg wet, ~700 kg dry
Launch date (UTC)
2024-08-04 (1 year ago)
Launch vehicle
FALCON 9
Launch site
Air Force Western Test Range (AFWTR)
Object type
Payload
Rocket body
Debris
Shape & HBR
Box + 2 Pan, 14.5 m
Radar Cross Section
33.884 m², Large (>1 m²)

Expand to show TLE details & history
Last TLE update: 8 hours ago

TLE from 8 hours ago
0 STARLINK-32188
1 60365U 24138L   25258.55884570  .00000129  00000-0  16486-4 0  9993
2 60365  53.1611  43.1135 0001121  81.5553 278.5575 15.30201453 63819
Epoch: 2025-09-15T13:24Z
TLE epoch observation values (Epoch: 2025-09-15T13:24:44.268Z)
Latitude
-0.00001°
Longitude
-152.83272°
Altitude
475.996 km
Speed
7.629 km/s
True Right ascension
02h 52m 27s
True Declination
0° 00' 00"
Sunlit
Object was in full shadow at epoch
Visualization orbit readout
Latitude
Unknown
Longitude
Unknown
Altitude
Unknown
Speed
Unknown
Apparent Right ascension
Unknown
Apparent Declination
Unknown
Sunlit
N/A
Visualization observer readout
Local Sidereal Time
13:57:45
Azimuth
Unknown
Elevation
Unknown
Doppler factor
Unknown
Orbital elements
Apogee altitude
476.235 km
Perigee altitude
474.699 km
Semi-major axis
6,853.604 km
Eccentricity
0.00011
Inclination
53.1611°
RAAN
43.1135°
Arg. of periapsis
81.5553°
True anomaly
278.5448°
Mean anomaly
278.5575°
Eccentric anomaly
278.55115°
Mean motion
3.82529 °/min
Orbital period
94.11 mins
BSTAR
0.000016486
Loading maneuver chart data...
Computing Atmospheric mass density...
Loading historical data...
Loading historical data...
Loading historical data...
Loading historical data...
Loading historical data...
Loading historical data...
Loading historical data...

Documentation

Showing up to 5 results
|